Location: Sobotiste
(48.7170°N, 17.4000°E)
Time: 10:11:55
(UTC+02:00)

METEOR M2 - Pass Details

Date: 23 March 2026
Orbit: 817 x 824 km, 98.5° (Epoch: 18 April)

Event Time Altitude Azimuth Distance (km) Brightness Sun altitude
Rises 02:53:57 0° 27° (NNE) 3,372 ? -27.4°
Reaches altitude 10° 02:57:07 10° 47° (NE) 2,433 ? -27.0°
Maximum altitude 03:00:42 18° 89° (E) 1,933 ? -26.5°
Drops below altitude 10° 03:04:15 10° 131° (SE) 2,419 ? -26.0°
Sets 03:07:22 0° 150° (SSE) 3,344 ? -25.6°
